Regional Weather Roundup
Issued by NWS

Home | Current Version | Previous Version | Text Only | Print | Product List | Glossary Off
Versions: 1 2 3 4 5 6 7 8 9 10 11 12 13 14 15 16 17 18 19 20 21 22 23 24 25 26 27 28 29 30 31 32 33 34 35 36 37 38 39 40 41 42 43 44 45 46 47 48 49 50

000
ASUS43 KIND 181509
RWRIN

WEATHER ROUNDUP FOR INDIANA
NATIONAL WEATHER SERVICE INDIANAPOLIS IN
1100 AM EDT THU SEP 18 2014

NOTE: "FAIR" INDICATES FEW OR NO CLOUDS BELOW 12,000 FEET WITH NO
SIGNIFICANT WEATHER AND/OR OBSTRUCTIONS TO VISIBILITY.

* - STATION DOES NOT REPORT WEATHER SUCH AS PRECIPITATION OR FOG.

+ - STATION NOT QUALITY CONTROLLED BY THE NATIONAL WEATHER SERVICE.
    USE DATA WITH CAUTION...ESPECIALLY DEWPOINT AND RELATIVE
    HUMIDITY OBSERVATIONS.

INZ001>003-010>013-019-020-181600-
NORTHWEST INDIANA

CITY           SKY/WX    TMP DP  RH WIND       PRES   REMARKS
GARY /AIRPORT/ MOSUNNY   64  52  63 VRB5      30.16R
KNOX *+        SUNNY     60  49  65 E3        30.15S
LA PORTE +     SUNNY     60  48  65 E5        30.17R
MICHIGAN CITY+ SUNNY     61  46  59 E6        30.16F
MONTICELLO +   SUNNY     61  50  66 NE9       30.13F
RENSSELAER +   SUNNY     63  52  67 E9        30.14F
VALPARAISO     SUNNY     61  50  67 CALM      30.16S

$$

LMZ046-743>745-181600-
SOUTHERN LAKE MICHIGAN

STATION/POSITION TIME  TEMP WIND        PRES
                       AIR  DIR/SP/G
                 (UTC) (F)  (DEG/KT/KT) (MB)
MICHIGAN CITY    1500   60   80/  6/  9   N/A

$$

INZ004-005-014>016-021>024-181600-
NORTH CENTRAL INDIANA

CITY           SKY/WX    TMP DP  RH WIND       PRES   REMARKS
ELKHART        SUNNY     61  48  63 E6        30.16R
GOSHEN         SUNNY     62  50  64 E7        30.16R
LOGANSPORT +   SUNNY     59  48  67 NE6       30.14F
PERU/GRISSOM   SUNNY     58  54  87 NE7       30.14R
ROCHESTER +    SUNNY     64  52  63 NE5       30.15S
SOUTH BEND     SUNNY     62  48  60 VRB3      30.16S
WARSAW +       SUNNY     61  50  67 NE3       30.16R

$$

INZ006>009-017-018-025>027-181600-
NORTHEAST INDIANA

CITY           SKY/WX    TMP DP  RH WIND       PRES   REMARKS
ANGOLA *+      SUNNY     63  48  59 CALM      30.14R
AUBURN +       SUNNY     63  46  55 NE5       30.16R
FORT WAYNE     SUNNY     61  50  67 NE7       30.16R
HUNTINGTON +   SUNNY     60  51  71 NE3       30.15R

$$

INZ028-029-035-036-043>045-051>053-181600-
WEST CENTRAL INDIANA

CITY           SKY/WX    TMP DP  RH WIND       PRES   REMARKS
GREENCASTLE +  SUNNY     63  50  63 NE10      30.10S
LAFAYETTE      SUNNY     60  49  66 NE12      30.12F
TERRE HAUTE    SUNNY     66  51  58 NE9       30.10R

$$

INZ030>032-037>040-046>048-054>057-064-065-181600-
CENTRAL INDIANA

CITY           SKY/WX    TMP DP  RH WIND       PRES   REMARKS
CP ATTERBURY + SUNNY     64  54  68 NE6       30.11R
FRANKFORT +    SUNNY     61  53  74 N5        30.13S
INDIANAPOLIS   MOSUNNY   63  49  60 NE8       30.10S
-EAGLE CREEK   SUNNY     63  46  54 NE6       30.10S
KOKOMO *+      SUNNY     61  52  72 NE3       30.14S
MARION +       SUNNY     59  49  69 E5        30.14S
MT COMFORT *+  SUNNY     63  48  59 NE5       30.12R
SHELBYVILLE    SUNNY     67  53  61 VRB5      30.11R
ZIONSVILLE +   SUNNY     61  49  64 NE5       30.13S

$$

INZ033-034-041-042-049-050-058-059-181600-
EAST CENTRAL INDIANA

CITY           SKY/WX    TMP DP  RH WIND       PRES   REMARKS
MUNCIE         SUNNY     63  52  67 E6        30.13R

$$

INZ060-061-067>069-081>083-085>088-181600-
SOUTHWEST INDIANA

CITY           SKY/WX    TMP DP  RH WIND       PRES   REMARKS
EVANSVILLE     CLOUDY    64  52  64 NE9       30.08R
WASHINGTON +   MOSUNNY   65  53  64 E9        30.08S

$$

INZ062-063-066-070>080-084-089>092-181600-
SOUTH CENTRAL AND SOUTHEAST INDIANA

CITY           SKY/WX    TMP DP  RH WIND       PRES   REMARKS
BLOOMINGTON    SUNNY     66  52  60 NE6       30.10R

$$



USA.gov is the U.S. government's official web portal to all federal, state and local government web resources and services.